| time (UTC) | temp F | wind direction | speed MPH | gust MPH | rain 1hr in | rain 24hr in | rain mn in | humidity % | barometer mb |
| 20260906031019 | 86 | 185 | 1.0 | 6.0 | 0.00 | 0.00 | 0.00 | 64 | 1013.2 |
| 20260906030523 | 86 | 0 | 0.0 | 5.0 | 0.00 | 0.00 | 0.00 | 64 | 1013.1 |
| 20260906030039 | 87 | 178 | 1.0 | 7.0 | 0.00 | 0.00 | 0.00 | 63 | 1013.1 |
| 20260906025527 | 87 | 223 | 1.0 | 8.0 | 0.00 | 0.00 | 0.00 | 63 | 1013.2 |
| 20260906025025 | 87 | 212 | 1.0 | 8.0 | 0.00 | 0.00 | 0.00 | 63 | 1013.2 |
| 20260906024559 | 87 | 205 | 2.0 | 8.0 | 0.00 | 0.00 | 0.00 | 62 | 1013.2 |
| 20260906024021 | 87 | 157 | 2.0 | 8.0 | 0.00 | 0.00 | 0.00 | 62 | 1013.1 |
| 20260906023524 | 87 | 173 | 2.0 | 8.0 | 0.00 | 0.00 | 0.00 | 62 | 1012.9 |
| 20260906023042 | 87 | 209 | 2.0 | 8.0 | 0.00 | 0.00 | 0.00 | 61 | 1012.8 |
| 20260906022519 | 87 | 121 | 1.0 | 8.0 | 0.00 | 0.00 | 0.00 | 61 | 1012.8 |
| 20260906022021 | 87 | 167 | 2.0 | 8.0 | 0.00 | 0.00 | 0.00 | 61 | 1012.7 |
| 20260906021540 | 87 | 188 | 1.0 | 8.0 | 0.00 | 0.00 | 0.00 | 60 | 1012.7 |
| 20260906021021 | 87 | 126 | 2.0 | 8.0 | 0.00 | 0.00 | 0.00 | 60 | 1012.7 |
| 20260906020524 | 88 | 159 | 1.0 | 7.0 | 0.00 | 0.00 | 0.00 | 59 | 1012.6 |
| 20260906020049 | 88 | 167 | 2.0 | 8.0 | 0.00 | 0.00 | 0.00 | 59 | 1012.4 |
| 20260906015524 | 88 | 167 | 1.0 | 8.0 | 0.00 | 0.00 | 0.00 | 59 | 1012.3 |
| 20260906015024 | 88 | 208 | 1.0 | 4.0 | 0.00 | 0.00 | 0.00 | 58 | 1012.4 |
| 20260906014559 | 88 | 216 | 1.0 | 8.0 | 0.00 | 0.00 | 0.00 | 58 | 1012.4 |
| 20260906014028 | 89 | 163 | 2.0 | 11.0 | 0.00 | 0.00 | 0.00 | 57 | 1012.4 |
| 20260906013521 | 89 | 126 | 3.0 | 11.0 | 0.00 | 0.00 | 0.00 | 56 | 1012.3 |
| 20260906013102 | 89 | 158 | 3.0 | 11.0 | 0.00 | 0.00 | 0.00 | 56 | 1012.1 |
| 20260906012524 | 90 | 193 | 3.0 | 11.0 | 0.00 | 0.00 | 0.00 | 54 | 1012.1 |
| 20260906012022 | 91 | 166 | 3.0 | 11.0 | 0.00 | 0.00 | 0.00 | 53 | 1011.9 |
| 20260906011546 | 91 | 165 | 3.0 | 13.0 | 0.00 | 0.00 | 0.00 | 52 | 1011.7 |
| 20260906011025 | 92 | 196 | 3.0 | 13.0 | 0.00 | 0.00 | 0.00 | 51 | 1011.6 |
| 20260906010525 | 92 | 165 | 4.0 | 14.0 | 0.00 | 0.00 | 0.00 | 50 | 1011.5 |
| 20260906010048 | 93 | 166 | 5.0 | 14.0 | 0.00 | 0.00 | 0.00 | 49 | 1011.5 |
| 20260906005525 | 93 | 161 | 4.0 | 12.0 | 0.00 | 0.00 | 0.00 | 48 | 1011.5 |
| 20260906005028 | 94 | 175 | 3.0 | 11.0 | 0.00 | 0.00 | 0.00 | 47 | 1011.4 |
| 20260906004544 | 94 | 164 | 3.0 | 11.0 | 0.00 | 0.00 | 0.00 | 46 | 1011.3 |
| 20260906004026 | 95 | 176 | 3.0 | 10.0 | 0.00 | 0.00 | 0.00 | 44 | 1011.2 |
| 20260906003528 | 95 | 181 | 2.0 | 9.0 | 0.00 | 0.00 | 0.00 | 43 | 1011.2 |
| 20260906003050 | 95 | 146 | 2.0 | 9.0 | 0.00 | 0.00 | 0.00 | 43 | 1011.2 |
| 20260906002524 | 95 | 169 | 2.0 | 7.0 | 0.00 | 0.00 | 0.00 | 43 | 1011.2 |
| 20260906002025 | 95 | 196 | 2.0 | 5.0 | 0.00 | 0.00 | 0.00 | 42 | 1011.3 |
| 20260906001548 | 96 | 176 | 1.0 | 6.0 | 0.00 | 0.00 | 0.00 | 43 | 1011.2 |
| 20260906001025 | 96 | 175 | 2.0 | 6.0 | 0.00 | 0.00 | 0.00 | 42 | 1011.2 |
| 20260906000526 | 96 | 180 | 1.0 | 6.0 | 0.00 | 0.00 | 0.00 | 41 | 1011.2 |
| 20260906000048 | 96 | 145 | 1.0 | 8.0 | 0.00 | 0.00 | 0.00 | 41 | 1011.2 |
| 20260905235524 | 96 | 160 | 2.0 | 8.0 | 0.00 | 0.00 | 0.00 | 41 | 1011.2 |
| 20260905235024 | 96 | 0 | 1.0 | 5.0 | 0.00 | 0.00 | 0.00 | 41 | 1011.1 |
| 20260905234545 | 96 | 171 | 2.0 | 8.0 | 0.00 | 0.00 | 0.00 | 41 | 1011.0 |
| 20260905234024 | 97 | 137 | 1.0 | 9.0 | 0.00 | 0.00 | 0.00 | 41 | 1010.9 |
| 20260905233524 | 97 | 107 | 2.0 | 9.0 | 0.00 | 0.00 | 0.00 | 41 | 1011.0 |
| 20260905233047 | 97 | 181 | 2.0 | 7.0 | 0.00 | 0.00 | 0.00 | 40 | 1011.0 |
| 20260905232526 | 98 | 192 | 1.0 | 7.0 | 0.00 | 0.00 | 0.00 | 40 | 1011.0 |
| 20260905232026 | 98 | 139 | 2.0 | 7.0 | 0.00 | 0.00 | 0.00 | 39 | 1011.0 |
| 20260905231545 | 98 | 150 | 2.0 | 7.0 | 0.00 | 0.00 | 0.00 | 38 | 1011.1 |
| 20260905231023 | 98 | 84 | 2.0 | 6.0 | 0.00 | 0.00 | 0.00 | 38 | 1011.0 |
| 20260905230524 | 98 | 43 | 1.0 | 6.0 | 0.00 | 0.00 | 0.00 | 38 | 1011.1 |
| 20260905230042 | 98 | 193 | 2.0 | 8.0 | 0.00 | 0.00 | 0.00 | 38 | 1011.1 |
| 20260905225522 | 98 | 190 | 2.0 | 8.0 | 0.00 | 0.00 | 0.00 | 38 | 1011.0 |
| 20260905225024 | 99 | 42 | 2.0 | 6.0 | 0.00 | 0.00 | 0.00 | 38 | 1011.1 |
| 20260905224538 | 99 | 113 | 2.0 | 5.0 | 0.00 | 0.00 | 0.00 | 37 | 1011.0 |
| 20260905224023 | 99 | 65 | 1.0 | 6.0 | 0.00 | 0.00 | 0.00 | 37 | 1011.0 |
| 20260905223525 | 99 | 0 | 2.0 | 8.0 | 0.00 | 0.00 | 0.00 | 37 | 1011.0 |
| 20260905223045 | 99 | 134 | 2.0 | 10.0 | 0.00 | 0.00 | 0.00 | 38 | 1011.0 |
| 20260905222528 | 100 | 175 | 3.0 | 10.0 | 0.00 | 0.00 | 0.00 | 37 | 1010.9 |
| 20260905222023 | 99 | 133 | 2.0 | 6.0 | 0.00 | 0.00 | 0.00 | 37 | 1010.9 |
| 20260905221545 | 100 | 57 | 1.0 | 4.0 | 0.00 | 0.00 | 0.00 | 36 | 1011.0 |
| 20260905221023 | 101 | 23 | 1.0 | 8.0 | 0.00 | 0.00 | 0.00 | 36 | 1011.0 |
| 20260905220523 | 101 | 153 | 2.0 | 8.0 | 0.00 | 0.00 | 0.00 | 36 | 1011.1 |
| 20260905220047 | 100 | 153 | 2.0 | 6.0 | 0.00 | 0.00 | 0.00 | 36 | 1011.1 |
| 20260905215523 | 100 | 9 | 2.0 | 6.0 | 0.00 | 0.00 | 0.00 | 36 | 1011.2 |
| 20260905215028 | 101 | 152 | 0.0 | 3.0 | 0.00 | 0.00 | 0.00 | 36 | 1011.3 |
| 20260905214545 | 100 | 254 | 0.0 | 4.0 | 0.00 | 0.00 | 0.00 | 36 | 1011.3 |
| 20260905214024 | 100 | 153 | 1.0 | 7.0 | 0.00 | 0.00 | 0.00 | 36 | 1011.3 |
| 20260905213524 | 99 | 345 | 1.0 | 7.0 | 0.00 | 0.00 | 0.00 | 36 | 1011.3 |
| 20260905213046 | 100 | 103 | 3.0 | 7.0 | 0.00 | 0.00 | 0.00 | 36 | 1011.4 |
| 20260905212526 | 100 | 154 | 2.0 | 7.0 | 0.00 | 0.00 | 0.00 | 36 | 1011.5 |
| 20260905212023 | 100 | 131 | 1.0 | 7.0 | 0.00 | 0.00 | 0.00 | 37 | 1011.5 |
| 20260905211547 | 100 | 197 | 1.0 | 8.0 | 0.00 | 0.00 | 0.00 | 37 | 1011.7 |
| 20260905211025 | 99 | 0 | 2.0 | 8.0 | 0.00 | 0.00 | 0.00 | 38 | 1011.7 |
| 20260905210527 | 100 | 159 | 2.0 | 8.0 | 0.00 | 0.00 | 0.00 | 37 | 1011.7 |
| 20260905210046 | 100 | 109 | 1.0 | 7.0 | 0.00 | 0.00 | 0.00 | 36 | 1011.8 |
| 20260905205524 | 101 | 178 | 3.0 | 7.0 | 0.00 | 0.00 | 0.00 | 36 | 1011.9 |
| 20260905205024 | 100 | 136 | 1.0 | 10.0 | 0.00 | 0.00 | 0.00 | 36 | 1012.0 |
| 20260905204555 | 101 | 55 | 3.0 | 10.0 | 0.00 | 0.00 | 0.00 | 36 | 1012.0 |
| 20260905204025 | 102 | 0 | 1.0 | 5.0 | 0.00 | 0.00 | 0.00 | 36 | 1012.2 |
| 20260905203523 | 102 | 309 | 1.0 | 5.0 | 0.00 | 0.00 | 0.00 | 36 | 1012.3 |
| 20260905203044 | 102 | 167 | 0.0 | 4.0 | 0.00 | 0.00 | 0.00 | 36 | 1012.3 |
| 20260905202523 | 102 | 150 | 0.0 | 4.0 | 0.00 | 0.00 | 0.00 | 35 | 1012.3 |
| 20260905202021 | 102 | 138 | 1.0 | 4.0 | 0.00 | 0.00 | 0.00 | 35 | 1012.4 |
| 20260905201547 | 101 | 135 | 0.0 | 3.0 | 0.00 | 0.00 | 0.00 | 35 | 1012.5 |
| 20260905201026 | 101 | 0 | 0.0 | 9.0 | 0.00 | 0.00 | 0.00 | 35 | 1012.5 |
| 20260905200526 | 101 | 188 | 2.0 | 9.0 | 0.00 | 0.00 | 0.00 | 36 | 1012.6 |
| 20260905200055 | 101 | 215 | 1.0 | 6.0 | 0.00 | 0.00 | 0.00 | 37 | 1012.7 |
| 20260905195523 | 101 | 215 | 0.0 | 5.0 | 0.00 | 0.00 | 0.00 | 37 | 1012.8 |
| 20260905195024 | 101 | 246 | 0.0 | 6.0 | 0.00 | 0.00 | 0.00 | 37 | 1012.8 |
| 20260905194548 | 101 | 117 | 1.0 | 8.0 | 0.00 | 0.00 | 0.00 | 37 | 1012.8 |
| 20260905194024 | 101 | 120 | 2.0 | 8.0 | 0.00 | 0.00 | 0.00 | 37 | 1012.9 |
| 20260905193522 | 101 | 58 | 2.0 | 8.0 | 0.00 | 0.00 | 0.00 | 38 | 1013.0 |
| 20260905193052 | 100 | 330 | 1.0 | 8.0 | 0.00 | 0.00 | 0.00 | 38 | 1013.1 |
| 20260905192526 | 100 | 119 | 1.0 | 6.0 | 0.00 | 0.00 | 0.00 | 39 | 1013.2 |
| 20260905192021 | 100 | 185 | 1.0 | 6.0 | 0.00 | 0.00 | 0.00 | 37 | 1013.2 |
| 20260905191553 | 100 | 167 | 1.0 | 5.0 | 0.00 | 0.00 | 0.00 | 40 | 1013.4 |
| 20260905191021 | 99 | 66 | 2.0 | 5.0 | 0.00 | 0.00 | 0.00 | 39 | 1013.5 |
| 20260905190524 | 100 | 216 | 0.0 | 5.0 | 0.00 | 0.00 | 0.00 | 39 | 1013.6 |
| 20260905190049 | 100 | 248 | 1.0 | 5.0 | 0.00 | 0.00 | 0.00 | 41 | 1013.7 |
| 20260905185523 | 99 | 192 | 1.0 | 6.0 | 0.00 | 0.00 | 0.00 | 43 | 1013.7 |
| 20260905185026 | 98 | 176 | 2.0 | 6.0 | 0.00 | 0.00 | 0.00 | 42 | 1013.7 |
| 20260905184546 | 96 | 169 | 2.0 | 6.0 | 0.00 | 0.00 | 0.00 | 45 | 1013.9 |
| 20260905184023 | 96 | 134 | 2.0 | 6.0 | 0.00 | 0.00 | 0.00 | 44 | 1013.9 |
| 20260905183523 | 99 | 324 | 1.0 | 6.0 | 0.00 | 0.00 | 0.00 | 42 | 1014.0 |
| 20260905183047 | 99 | 0 | 0.0 | 5.0 | 0.00 | 0.00 | 0.00 | 43 | 1014.0 |
| 20260905182527 | 98 | 161 | 2.0 | 9.0 | 0.00 | 0.00 | 0.00 | 43 | 1014.1 |
| 20260905182026 | 97 | 205 | 2.0 | 9.0 | 0.00 | 0.00 | 0.00 | 44 | 1014.2 |
| 20260905181547 | 98 | 139 | 2.0 | 6.0 | 0.00 | 0.00 | 0.00 | 43 | 1014.3 |
| 20260905181020 | 99 | 210 | 1.0 | 4.0 | 0.00 | 0.00 | 0.00 | 43 | 1014.3 |
| 20260905180523 | 98 | 244 | 0.0 | 4.0 | 0.00 | 0.00 | 0.00 | 44 | 1014.4 |
| 20260905180044 | 98 | 188 | 0.0 | 5.0 | 0.00 | 0.00 | 0.00 | 44 | 1014.4 |
| 20260905175528 | 98 | 325 | 1.0 | 6.0 | 0.00 | 0.00 | 0.00 | 43 | 1014.5 |
| 20260905175022 | 98 | 168 | 1.0 | 6.0 | 0.00 | 0.00 | 0.00 | 43 | 1014.8 |
| 20260905174547 | 98 | 148 | 1.0 | 6.0 | 0.00 | 0.00 | 0.00 | 43 | 1014.9 |
| 20260905174021 | 97 | 89 | 1.0 | 7.0 | 0.00 | 0.00 | 0.00 | 44 | 1014.9 |
| 20260905173525 | 97 | 180 | 2.0 | 7.0 | 0.00 | 0.00 | 0.00 | 44 | 1015.0 |
| 20260905173044 | 97 | 170 | 1.0 | 6.0 | 0.00 | 0.00 | 0.00 | 45 | 1015.0 |
| 20260905172524 | 97 | 243 | 1.0 | 6.0 | 0.00 | 0.00 | 0.00 | 46 | 1015.0 |
| 20260905172024 | 96 | 131 | 2.0 | 6.0 | 0.00 | 0.00 | 0.00 | 47 | 1015.0 |
| 20260905171544 | 96 | 39 | 1.0 | 4.0 | 0.00 | 0.00 | 0.00 | 47 | 1015.0 |
| 20260905171023 | 96 | 0 | 0.0 | 4.0 | 0.00 | 0.00 | 0.00 | 47 | 1015.1 |
| 20260905170523 | 96 | 255 | 0.0 | 5.0 | 0.00 | 0.00 | 0.00 | 47 | 1015.1 |
| 20260905170053 | 96 | 0 | 1.0 | 5.0 | 0.00 | 0.00 | 0.00 | 49 | 1015.2 |
| 20260905165525 | 95 | 0 | 1.0 | 5.0 | 0.00 | 0.00 | 0.00 | 47 | 1015.1 |
| 20260905165024 | 96 | 222 | 1.0 | 5.0 | 0.00 | 0.00 | 0.00 | 47 | 1015.2 |
| 20260905164546 | 95 | 151 | 0.0 | 3.0 | 0.00 | 0.00 | 0.00 | 49 | 1015.1 |
| 20260905164023 | 95 | 0 | 0.0 | 3.0 | 0.00 | 0.00 | 0.00 | 49 | 1015.1 |
| 20260905163528 | 95 | 229 | 0.0 | 3.0 | 0.00 | 0.00 | 0.00 | 50 | 1015.2 |
| 20260905163046 | 94 | 271 | 1.0 | 3.0 | 0.00 | 0.00 | 0.00 | 50 | 1015.1 |
| 20260905162524 | 94 | 0 | 0.0 | 5.0 | 0.00 | 0.00 | 0.00 | 50 | 1015.2 |
| 20260905162024 | 94 | 188 | 1.0 | 6.0 | 0.00 | 0.00 | 0.00 | 51 | 1015.2 |
| 20260905161541 | 93 | 140 | 2.0 | 7.0 | 0.00 | 0.00 | 0.00 | 52 | 1015.1 |
| 20260905161023 | 92 | 149 | 2.0 | 7.0 | 0.00 | 0.00 | 0.00 | 53 | 1015.0 |
| 20260905160525 | 91 | 126 | 1.0 | 4.0 | 0.00 | 0.00 | 0.00 | 55 | 1015.1 |
| 20260905160050 | 91 | 36 | 1.0 | 4.0 | 0.00 | 0.00 | 0.00 | 55 | 1015.1 |
| 20260905155520 | 91 | 298 | 0.0 | 4.0 | 0.00 | 0.00 | 0.00 | 54 | 1015.2 |
| 20260905155025 | 91 | 244 | 0.0 | 4.0 | 0.00 | 0.00 | 0.00 | 55 | 1015.2 |
| 20260905154545 | 90 | 220 | 1.0 | 4.0 | 0.00 | 0.00 | 0.00 | 55 | 1015.2 |
| 20260905154024 | 91 | 185 | 1.0 | 4.0 | 0.00 | 0.00 | 0.00 | 55 | 1015.1 |
| 20260905153523 | 91 | 168 | 1.0 | 4.0 | 0.00 | 0.00 | 0.00 | 56 | 1015.1 |
| 20260905153044 | 91 | 0 | 0.0 | 2.0 | 0.00 | 0.00 | 0.00 | 56 | 1015.0 |
| 20260905152523 | 90 | 0 | 0.0 | 5.0 | 0.00 | 0.00 | 0.00 | 57 | 1015.1 |
| 20260905152023 | 89 | 0 | 2.0 | 5.0 | 0.00 | 0.00 | 0.00 | 59 | 1015.1 |
| 20260905151552 | 89 | 320 | 1.0 | 4.0 | 0.00 | 0.00 | 0.00 | 60 | 1015.1 |
| 20260905151021 | 89 | 238 | 0.0 | 4.0 | 0.00 | 0.00 | 0.00 | 61 | 1015.1 |
| 20260905150527 | 88 | 290 | 1.0 | 4.0 | 0.00 | 0.00 | 0.00 | 62 | 1015.0 |
| 20260905150055 | 89 | 346 | 2.0 | 4.0 | 0.00 | 0.00 | 0.00 | 61 | 1014.9 |
| 20260905145528 | 88 | 242 | 0.0 | 4.0 | 0.00 | 0.00 | 0.00 | 62 | 1014.9 |
| 20260905145024 | 88 | 0 | 0.0 | 4.0 | 0.00 | 0.00 | 0.00 | 63 | 1015.0 |
| 20260905144549 | 88 | 0 | 1.0 | 4.0 | 0.00 | 0.00 | 0.00 | 63 | 1015.0 |
| 20260905144025 | 87 | 200 | 0.0 | 3.0 | 0.00 | 0.00 | 0.00 | 64 | 1015.1 |
| 20260905143524 | 87 | 205 | 0.0 | 3.0 | 0.00 | 0.00 | 0.00 | 65 | 1015.0 |
| 20260905143049 | 87 | 250 | 0.0 | 3.0 | 0.00 | 0.00 | 0.00 | 64 | 1015.0 |
| 20260905142522 | 87 | 5 | 0.0 | 1.0 | 0.00 | 0.00 | 0.00 | 65 | 1014.9 |
| 20260905142023 | 86 | 0 | 0.0 | 2.0 | 0.00 | 0.00 | 0.00 | 66 | 1014.9 |
| 20260905141542 | 86 | 0 | 0.0 | 2.0 | 0.00 | 0.00 | 0.00 | 67 | 1015.0 |
| 20260905141026 | 85 | 258 | 0.0 | 2.0 | 0.00 | 0.00 | 0.00 | 68 | 1014.9 |
| 20260905140524 | 85 | 0 | 0.0 | 4.0 | 0.00 | 0.00 | 0.00 | 68 | 1014.9 |
| 20260905140048 | 85 | 0 | 0.0 | 4.0 | 0.00 | 0.00 | 0.00 | 68 | 1015.0 |
| 20260905135525 | 85 | 0 | 0.0 | 3.0 | 0.00 | 0.00 | 0.00 | 68 | 1015.0 |
| 20260905135024 | 84 | 0 | 0.0 | 3.0 | 0.00 | 0.00 | 0.00 | 69 | 1014.9 |
| 20260905134545 | 84 | 0 | 0.0 | 1.0 | 0.00 | 0.00 | 0.00 | 71 | 1015.0 |
| 20260905134025 | 83 | 252 | 0.0 | 2.0 | 0.00 | 0.00 | 0.00 | 71 | 1015.0 |
| 20260905133526 | 83 | 0 | 0.0 | 2.0 | 0.00 | 0.00 | 0.00 | 72 | 1014.8 |
| 20260905133047 | 83 | 0 | 0.0 | 2.0 | 0.00 | 0.00 | 0.00 | 72 | 1014.7 |
| 20260905132525 | 82 | 0 | 0.0 | 2.0 | 0.00 | 0.00 | 0.00 | 73 | 1014.7 |
| 20260905132035 | 82 | 0 | 0.0 | 2.0 | 0.00 | 0.00 | 0.00 | 74 | 1014.6 |
| 20260905131550 | 81 | 0 | 0.0 | 1.0 | 0.00 | 0.00 | 0.00 | 75 | 1014.6 |
| 20260905131028 | 81 | 0 | 0.0 | 1.0 | 0.00 | 0.00 | 0.00 | 75 | 1014.5 |
| 20260905130524 | 80 | 0 | 0.0 | 1.0 | 0.00 | 0.00 | 0.00 | 76 | 1014.4 |
| 20260905130044 | 80 | 211 | 0.0 | 1.0 | 0.00 | 0.00 | 0.00 | 77 | 1014.3 |
| 20260905125526 | 80 | 0 | 0.0 | 1.0 | 0.00 | 0.00 | 0.00 | 77 | 1014.3 |
| 20260905125023 | 80 | 0 | 0.0 | 1.0 | 0.00 | 0.00 | 0.00 | 77 | 1014.4 |
| 20260905124543 | 79 | 0 | 0.0 | 1.0 | 0.00 | 0.00 | 0.00 | 77 | 1014.3 |
| 20260905124028 | 79 | 0 | 0.0 | 1.0 | 0.00 | 0.00 | 0.00 | 78 | 1014.3 |
| 20260905123525 | 79 | 0 | 0.0 | 1.0 | 0.00 | 0.00 | 0.00 | 77 | 1014.2 |
| 20260905123046 | 79 | 0 | 0.0 | 1.0 | 0.00 | 0.00 | 0.00 | 77 | 1014.1 |
| 20260905122528 | 79 | 0 | 0.0 | 1.0 | 0.00 | 0.00 | 0.00 | 77 | 1014.0 |
| 20260905122025 | 79 | 0 | 0.0 | 1.0 | 0.00 | 0.00 | 0.00 | 78 | 1013.9 |
| 20260905121544 | 79 | 0 | 0.0 | 1.0 | 0.00 | 0.00 | 0.00 | 77 | 1013.9 |
| 20260905121028 | 79 | 0 | 0.0 | 1.0 | 0.00 | 0.00 | 0.00 | 77 | 1013.8 |
| 20260905120524 | 79 | 157 | 0.0 | 1.0 | 0.00 | 0.00 | 0.00 | 77 | 1013.8 |
| 20260905120042 | 79 | 0 | 0.0 | 1.0 | 0.00 | 0.00 | 0.00 | 77 | 1013.9 |
| 20260905115522 | 79 | 218 | 0.0 | 1.0 | 0.00 | 0.00 | 0.00 | 77 | 1013.9 |
| 20260905115021 | 79 | 218 | 0.0 | 1.0 | 0.00 | 0.00 | 0.00 | 77 | 1013.9 |
| 20260905114547 | 79 | 0 | 0.0 | 1.0 | 0.00 | 0.00 | 0.00 | 77 | 1013.8 |
| 20260905114025 | 79 | 218 | 0.0 | 1.0 | 0.00 | 0.00 | 0.00 | 77 | 1013.9 |
| 20260905113526 | 79 | 0 | 0.0 | 1.0 | 0.00 | 0.00 | 0.00 | 77 | 1013.9 |
| 20260905113045 | 79 | 0 | 0.0 | 1.0 | 0.00 | 0.00 | 0.00 | 77 | 1013.9 |
| 20260905112524 | 79 | 0 | 0.0 | 1.0 | 0.00 | 0.00 | 0.00 | 77 | 1014.0 |
| 20260905112020 | 79 | 0 | 0.0 | 1.0 | 0.00 | 0.00 | 0.00 | 77 | 1013.9 |
| 20260905111602 | 79 | 0 | 0.0 | 1.0 | 0.00 | 0.00 | 0.00 | 76 | 1014.0 |
| 20260905111025 | 79 | 0 | 0.0 | 1.0 | 0.00 | 0.00 | 0.00 | 76 | 1013.9 |
| 20260905110522 | 79 | 0 | 0.0 | 1.0 | 0.00 | 0.00 | 0.00 | 76 | 1014.0 |
| 20260905110039 | 79 | 0 | 0.0 | 1.0 | 0.00 | 0.00 | 0.00 | 76 | 1014.0 |
| 20260905105524 | 79 | 218 | 0.0 | 1.0 | 0.00 | 0.00 | 0.00 | 76 | 1014.0 |
| 20260905105020 | 79 | 0 | 0.0 | 0.0 | 0.00 | 0.00 | 0.00 | 76 | 1014.0 |
| 20260905104545 | 79 | 0 | 0.0 | 0.0 | 0.00 | 0.00 | 0.00 | 75 | 1014.0 |
| 20260905104021 | 79 | 0 | 0.0 | 0.0 | 0.00 | 0.00 | 0.00 | 75 | 1014.0 |
| 20260905103524 | 79 | 0 | 0.0 | 0.0 | 0.00 | 0.00 | 0.00 | 75 | 1014.0 |
| 20260905103047 | 80 | 0 | 0.0 | 0.0 | 0.00 | 0.00 | 0.00 | 75 | 1014.1 |
| 20260905102527 | 80 | 0 | 0.0 | 0.0 | 0.00 | 0.00 | 0.00 | 74 | 1014.0 |
| 20260905102023 | 80 | 0 | 0.0 | 1.0 | 0.00 | 0.00 | 0.00 | 74 | 1014.0 |
| 20260905101547 | 80 | 0 | 0.0 | 1.0 | 0.00 | 0.00 | 0.00 | 73 | 1014.0 |
| 20260905101022 | 80 | 0 | 0.0 | 1.0 | 0.00 | 0.00 | 0.00 | 72 | 1013.9 |
| 20260905100523 | 80 | 0 | 0.0 | 1.0 | 0.00 | 0.00 | 0.00 | 73 | 1013.9 |
| 20260905100055 | 80 | 0 | 0.0 | 1.0 | 0.00 | 0.00 | 0.00 | 73 | 1014.0 |
| 20260905095524 | 80 | 0 | 0.0 | 1.0 | 0.00 | 0.00 | 0.00 | 72 | 1014.0 |
| 20260905095024 | 80 | 0 | 0.0 | 1.0 | 0.00 | 0.00 | 0.00 | 72 | 1014.0 |
| 20260905094547 | 80 | 0 | 0.0 | 1.0 | 0.00 | 0.00 | 0.00 | 72 | 1013.9 |
| 20260905094026 | 81 | 0 | 0.0 | 1.0 | 0.00 | 0.00 | 0.00 | 71 | 1013.8 |
| 20260905093525 | 81 | 0 | 0.0 | 1.0 | 0.00 | 0.00 | 0.00 | 71 | 1013.8 |
| 20260905093044 | 81 | 0 | 0.0 | 1.0 | 0.00 | 0.00 | 0.00 | 71 | 1013.8 |
| 20260905092522 | 81 | 0 | 0.0 | 1.0 | 0.00 | 0.00 | 0.00 | 71 | 1013.7 |
| 20260905092023 | 81 | 0 | 0.0 | 1.0 | 0.00 | 0.00 | 0.00 | 71 | 1013.7 |
| 20260905091556 | 81 | 0 | 0.0 | 1.0 | 0.00 | 0.00 | 0.00 | 70 | 1013.7 |
| 20260905091022 | 81 | 0 | 0.0 | 1.0 | 0.00 | 0.00 | 0.00 | 70 | 1013.6 |
| 20260905090525 | 81 | 0 | 0.0 | 1.0 | 0.00 | 0.00 | 0.00 | 69 | 1013.6 |
| 20260905090045 | 81 | 0 | 0.0 | 0.0 | 0.00 | 0.00 | 0.00 | 69 | 1013.7 |
| 20260905085527 | 81 | 0 | 0.0 | 0.0 | 0.00 | 0.00 | 0.00 | 69 | 1013.6 |
| 20260905085027 | 81 | 0 | 0.0 | 0.0 | 0.00 | 0.00 | 0.00 | 68 | 1013.6 |
| 20260905084551 | 82 | 0 | 0.0 | 1.0 | 0.00 | 0.00 | 0.00 | 68 | 1013.6 |
| 20260905084024 | 82 | 0 | 0.0 | 1.0 | 0.00 | 0.00 | 0.00 | 68 | 1013.5 |
| 20260905083523 | 82 | 0 | 0.0 | 1.0 | 0.00 | 0.00 | 0.00 | 68 | 1013.5 |
| 20260905083042 | 82 | 218 | 0.0 | 1.0 | 0.00 | 0.00 | 0.00 | 68 | 1013.5 |
| 20260905082524 | 82 | 218 | 0.0 | 1.0 | 0.00 | 0.00 | 0.00 | 68 | 1013.5 |
| 20260905082025 | 82 | 218 | 0.0 | 1.0 | 0.00 | 0.00 | 0.00 | 68 | 1013.6 |
| 20260905081550 | 82 | 218 | 0.0 | 1.0 | 0.00 | 0.00 | 0.00 | 67 | 1013.6 |
| 20260905081024 | 82 | 0 | 0.0 | 1.0 | 0.00 | 0.00 | 0.00 | 68 | 1013.6 |
| 20260905080523 | 82 | 0 | 0.0 | 1.0 | 0.00 | 0.00 | 0.00 | 68 | 1013.6 |
| 20260905080053 | 82 | 0 | 0.0 | 1.0 | 0.00 | 0.00 | 0.00 | 67 | 1013.5 |
| 20260905075528 | 82 | 0 | 0.0 | 1.0 | 0.00 | 0.00 | 0.00 | 68 | 1013.5 |
| 20260905075026 | 83 | 202 | 0.0 | 1.0 | 0.00 | 0.00 | 0.00 | 67 | 1013.6 |
| 20260905074545 | 83 | 0 | 0.0 | 1.0 | 0.00 | 0.00 | 0.00 | 67 | 1013.6 |
| 20260905074028 | 83 | 0 | 0.0 | 1.0 | 0.00 | 0.00 | 0.00 | 67 | 1013.5 |
| 20260905073524 | 83 | 0 | 0.0 | 1.0 | 0.00 | 0.00 | 0.00 | 66 | 1013.6 |
| 20260905073043 | 83 | 0 | 0.0 | 2.0 | 0.00 | 0.00 | 0.00 | 66 | 1013.7 |
| 20260905072521 | 84 | 0 | 0.0 | 2.0 | 0.00 | 0.00 | 0.00 | 66 | 1013.7 |
| 20260905072023 | 84 | 203 | 0.0 | 3.0 | 0.00 | 0.00 | 0.00 | 66 | 1013.7 |
| 20260905071552 | 84 | 221 | 0.0 | 3.0 | 0.00 | 0.00 | 0.00 | 66 | 1013.8 |
| 20260905071025 | 84 | 175 | 1.0 | 3.0 | 0.00 | 0.00 | 0.00 | 66 | 1013.8 |
| 20260905070524 | 84 | 166 | 0.0 | 2.0 | 0.00 | 0.00 | 0.00 | 66 | 1013.9 |
| 20260905070046 | 84 | 0 | 0.0 | 2.0 | 0.00 | 0.00 | 0.00 | 65 | 1013.8 |
| 20260905065523 | 84 | 223 | 0.0 | 2.0 | 0.00 | 0.00 | 0.00 | 65 | 1013.9 |
| 20260905065024 | 84 | 229 | 1.0 | 3.0 | 0.00 | 0.00 | 0.00 | 66 | 1013.9 |
| 20260905064547 | 84 | 190 | 0.0 | 4.0 | 0.00 | 0.00 | 0.00 | 66 | 1013.9 |
| 20260905064023 | 84 | 191 | 1.0 | 4.0 | 0.00 | 0.00 | 0.00 | 66 | 1013.9 |
| 20260905063523 | 84 | 164 | 0.0 | 3.0 | 0.00 | 0.00 | 0.00 | 66 | 1013.9 |
| 20260905063053 | 84 | 171 | 1.0 | 3.0 | 0.00 | 0.00 | 0.00 | 66 | 1013.9 |
| 20260905062525 | 84 | 184 | 1.0 | 3.0 | 0.00 | 0.00 | 0.00 | 66 | 1014.0 |
| 20260905062024 | 84 | 179 | 0.0 | 3.0 | 0.00 | 0.00 | 0.00 | 66 | 1014.0 |
| 20260905061605 | 84 | 0 | 0.0 | 2.0 | 0.00 | 0.00 | 0.00 | 66 | 1014.0 |
| 20260905061024 | 84 | 197 | 0.0 | 1.0 | 0.00 | 0.00 | 0.00 | 66 | 1014.0 |
| 20260905060525 | 84 | 197 | 0.0 | 1.0 | 0.00 | 0.00 | 0.00 | 65 | 1014.0 |
| 20260905060046 | 84 | 0 | 0.0 | 1.0 | 0.00 | 0.00 | 0.00 | 66 | 1013.9 |
| 20260905055520 | 84 | 0 | 0.0 | 1.0 | 0.00 | 0.00 | 0.00 | 65 | 1013.9 |
| 20260905055027 | 84 | 0 | 0.0 | 1.0 | 0.00 | 0.00 | 0.00 | 65 | 1013.9 |
| 20260905054544 | 85 | 0 | 0.0 | 1.0 | 0.00 | 0.00 | 0.00 | 64 | 1013.9 |
| 20260905054019 | 85 | 0 | 0.0 | 1.0 | 0.00 | 0.00 | 0.00 | 64 | 1013.9 |
| 20260905053521 | 85 | 0 | 0.0 | 1.0 | 0.00 | 0.00 | 0.00 | 64 | 1013.8 |
| 20260905053045 | 85 | 0 | 0.0 | 1.0 | 0.00 | 0.00 | 0.00 | 63 | 1013.9 |
| 20260905052524 | 85 | 0 | 0.0 | 2.0 | 0.00 | 0.00 | 0.00 | 62 | 1013.7 |
| 20260905052024 | 86 | 0 | 0.0 | 2.0 | 0.00 | 0.00 | 0.00 | 62 | 1013.7 |
| 20260905051545 | 86 | 0 | 0.0 | 2.0 | 0.00 | 0.00 | 0.00 | 62 | 1013.6 |
| 20260905051024 | 86 | 0 | 0.0 | 3.0 | 0.00 | 0.00 | 0.00 | 61 | 1013.6 |
| 20260905050524 | 86 | 0 | 0.0 | 3.0 | 0.00 | 0.00 | 0.00 | 61 | 1013.5 |
| 20260905050046 | 86 | 182 | 1.0 | 3.0 | 0.00 | 0.00 | 0.00 | 61 | 1013.5 |
| 20260905045520 | 86 | 182 | 1.0 | 4.0 | 0.00 | 0.00 | 0.00 | 61 | 1013.6 |
| 20260905045021 | 86 | 183 | 1.0 | 4.0 | 0.00 | 0.00 | 0.00 | 61 | 1013.7 |
| 20260905044544 | 86 | 189 | 1.0 | 3.0 | 0.00 | 0.00 | 0.00 | 61 | 1013.7 |
| 20260905044019 | 86 | 185 | 0.0 | 6.0 | 0.00 | 0.00 | 0.00 | 60 | 1013.7 |
| 20260905043524 | 86 | 0 | 1.0 | 6.0 | 0.00 | 0.00 | 0.00 | 60 | 1013.7 |
| 20260905043043 | 86 | 0 | 0.0 | 6.0 | 0.00 | 0.00 | 0.00 | 60 | 1013.6 |
| 20260905042521 | 86 | 156 | 1.0 | 6.0 | 0.00 | 0.00 | 0.00 | 59 | 1013.6 |
| 20260905042021 | 86 | 0 | 1.0 | 5.0 | 0.00 | 0.00 | 0.00 | 58 | 1013.6 |
| 20260905041550 | 87 | 161 | 1.0 | 4.0 | 0.00 | 0.00 | 0.00 | 58 | 1013.6 |
| 20260905041024 | 87 | 0 | 0.0 | 4.0 | 0.00 | 0.00 | 0.00 | 59 | 1013.5 |
| 20260905040524 | 87 | 178 | 1.0 | 4.0 | 0.00 | 0.00 | 0.00 | 58 | 1013.6 |
| 20260905040049 | 87 | 192 | 1.0 | 4.0 | 0.00 | 0.00 | 0.00 | 58 | 1013.6 |
| 20260905035523 | 87 | 156 | 1.0 | 4.0 | 0.00 | 0.00 | 0.00 | 57 | 1013.6 |
| 20260905035023 | 87 | 205 | 1.0 | 4.0 | 0.00 | 0.00 | 0.00 | 58 | 1013.5 |
| 20260905034545 | 87 | 157 | 1.0 | 4.0 | 0.00 | 0.00 | 0.00 | 57 | 1013.4 |
| 20260905034021 | 87 | 180 | 1.0 | 4.0 | 0.00 | 0.00 | 0.00 | 57 | 1013.5 |
| 20260905033522 | 88 | 168 | 1.0 | 4.0 | 0.00 | 0.00 | 0.00 | 57 | 1013.5 |
| 20260905033041 | 88 | 0 | 0.0 | 4.0 | 0.00 | 0.00 | 0.00 | 57 | 1013.5 |
| 20260905032526 | 88 | 162 | 1.0 | 4.0 | 0.00 | 0.00 | 0.00 | 57 | 1013.5 |
| 20260905032024 | 88 | 204 | 1.0 | 4.0 | 0.00 | 0.00 | 0.00 | 56 | 1013.5 |
| 20260905031545 | 88 | 0 | 1.0 | 5.0 | 0.00 | 0.00 | 0.00 | 56 | 1013.5 |